Terminal Aerodrome Forecast
Issued by NWS Boston, MA

Home | Current Version | Previous Version | Text Only | Print | Product List | Glossary On
Versions: 1 2 3 4 5 6 7 8 9 10 11 12 13 14 15 16 17 18 19 20 21 22 23 24 25 26 27 28 29 30 31 32 33 34 35 36 37 38 39 40
000
FTUS41 KBOX 292320
TAFBDL
TAF
KBDL 292320Z 3000/3106 17007KT P6SM FEW250
     FM300500 VRB03KT P6SM SCT200
     FM301700 18008KT P6SM SCT050
     FM310100 19008KT P6SM BKN110=

USA.gov is the U.S. government's official web portal to all federal, state and local government web resources and services.